Weather Roundup
Issued by NWS Corpus Christi, TX

Home | Current Version | Previous Version | Text Only | Print | Product List | Glossary On
Versions: 1 2 3 4 5 6 7 8 9 10 11 12 13 14 15 16 17 18 19 20 21 22 23 24 25 26 27 28 29 30 31 32 33 34 35 36 37 38 39 40 41 42 43 44 45 46 47 48 49 50
144
ASUS44 KCRP 111910
HRRCRP

SOUTH TEXAS REGIONAL WEATHER ROUNDUP
NATIONAL WEATHER SERVICE CORPUS CHRISTI TX
100 PM CST THU FEB 11 2016


TXZ229>244-112000-
...CORPUS CHRISTI AREA OBSERVATIONS...

CITY           SKY/WX    TMP DP  RH WIND       PRES   REMARKS
CORPUS CHRISTI SUNNY     81  43  26 S14G24    30.16F
NAS CORPUS CHR NOT AVBL
ROCKPORT       SUNNY     74  53  48 S14G20    30.17F
ALICE          SUNNY     81  38  21 S15       30.14F
FALFURRIAS     SUNNY     80  37  21 S10G17    30.15F
$$

...VICTORIA AREA OBSERVATIONS...

CITY           SKY/WX    TMP DP  RH WIND       PRES   REMARKS
VICTORIA       SUNNY     77  45  32 SW15      30.17F
BEEVILLE       FAIR      79  41  25 SW12G20   30.16F
PLEASANTON     SUNNY     77  38  24 S6        30.14
SAN ANTONIO    SUNNY     75  39  27 SW13      30.14F
$$

...LAREDO AREA OBSERVATIONS...

CITY           SKY/WX    TMP DP  RH WIND       PRES   REMARKS
LAREDO         SUNNY     80  38  22 SE9       30.14
COTULLA        SUNNY     81  38  21 SE5       30.13F
DEL RIO        SUNNY     74  29  19 CALM      30.12F
MCALLEN        SUNNY     84  36  18 SE17G26   30.14F
HEBBRONVILLE   NOT AVBL
$$

...OTHER TEXAS OBSERVATIONS...

CITY           SKY/WX    TMP DP  RH WIND       PRES   REMARKS
BROWNSVILLE    SUNNY     76  49  38 S25G33    30.18F
HOUSTON        SUNNY     76  44  32 SW13G18   30.15F
COL. STATION   SUNNY     77  40  26 SW14      30.13F
AUSTIN         SUNNY     77  39  25 S15G23    30.11F
WACO           SUNNY     79  34  19 VRB6      30.08F
FORT WORTH     PTSUNNY   71  28  20 NW10      30.08F
WICHITA FALLS  SUNNY     66  33  29 NE13      30.13F
LUBBOCK        MOSUNNY   64  26  23 NE12G17   30.18F
EL PASO        SUNNY     63  19  18 S5        30.26F
$$

...MARINE OBSERVATIONS...

STATION/POSITION TIME  SKY/WX   TEMP    WIND        PRES    VSBY  WAVE   SWELL
                                AIR SEA DIR/SP/G                  HT/PER HT/PER
                 (UTC)          (F)     (DEG/KT/KT) (MB)    (MI)  (FT/S) (FT/S)
PORT ARANSAS     1900            63 61  160/ 14/ 15 1022.6F
BUOY 90 E PORT A 1850            69 68  210/ 17/ 19 1022.6F         4/ 6   2/13
BUOY 45 SE BAFFI 1850            66 69  190/ 16/ 17 1022.3F         3/ 6   2/13
BUOY 200 E PT IS 1850                                 N/A           2/ 4   2/ 5
BUOY 15 E GALVES 1850            61 59  240/ 12/ 14 1022.3F         4/ 6   3/ 6
$$




USA.gov is the U.S. government's official web portal to all federal, state and local government web resources and services.